.
WxDataArchive / Data Records for 2005-12-20
2005-12-19 December 2005 2005-12-21

Data Records for Tuesday, 20 December 2005

Time	Temp	Chill	HIndex	Humid	Dewpt	 Wind 	HiWind	WindDir	Rain 	Barom 
-----	----	-----	------	-----	-----	------	------	-------	-----	----- 
00:00	6.5	6.5	6.5	78	1.1	2	9	270	0.00	30.369 
00:05	6.5	-1.4	6.5	78	1.1	4	13	270	0.00	30.369 
00:10	6.5	6.5	6.5	78	1.1	3	11	270	0.00	30.369 
00:15	6.5	6.5	6.5	78	1.1	3	11	270	0.00	30.363 
00:20	6.3	6.3	6.3	78	0.9	3	12	248	0.00	30.363 
00:25	6.3	6.3	6.3	78	0.9	3	8	248	0.00	30.363 
00:30	6.3	6.3	6.3	78	0.9	3	7	248	0.00	30.359 
00:35	6.3	6.3	6.3	78	0.9	3	7	270	0.00	30.359 
00:40	6.3	6.3	6.3	78	0.9	2	10	270	0.00	30.359 
00:45	6.3	6.3	6.3	77	0.7	3	11	248	0.00	30.353 
00:50	6.5	6.5	6.5	77	0.9	3	8	270	0.00	30.353 
00:55	6.5	6.5	6.5	77	0.9	3	10	270	0.00	30.353 
01:00	6.5	6.5	6.5	77	0.9	3	11	270	0.00	30.348 
01:05	6.5	6.5	6.5	77	0.9	3	10	270	0.00	30.348 
01:10	6.7	-1.1	6.7	77	1.0	4	13	270	0.00	30.348 
01:15	6.5	6.5	6.5	76	0.6	2	7	270	0.00	30.343 
01:20	6.7	6.7	6.7	76	0.8	3	11	270	0.00	30.343 
01:25	6.5	6.5	6.5	76	0.6	2	8	270	0.00	30.343 
01:30	6.5	6.5	6.5	76	0.6	3	10	270	0.00	30.343 
01:35	6.5	-1.4	6.5	75	0.3	4	12	248	0.00	30.343 
01:40	6.5	6.5	6.5	75	0.3	3	7	248	0.00	30.343 
01:45	6.5	6.5	6.5	75	0.3	3	10	270	0.00	30.348 
01:50	6.5	6.5	6.5	75	0.3	3	12	270	0.00	30.348 
01:55	6.5	6.5	6.5	75	0.3	2	9	270	0.00	30.348 
02:00	6.5	6.5	6.5	75	0.3	3	10	270	0.00	30.353 
02:05	6.5	6.5	6.5	75	0.3	3	11	248	0.00	30.353 
02:10	6.5	6.5	6.5	75	0.3	3	8	270	0.00	30.353 
02:15	6.5	6.5	6.5	74	0.0	2	9	270	0.00	30.354 
02:20	6.5	6.5	6.5	75	0.3	3	8	270	0.00	30.354 
02:25	6.5	6.5	6.5	75	0.3	3	12	270	0.00	30.354 
02:30	6.5	6.5	6.5	74	0.0	2	9	270	0.00	30.351 
02:35	6.7	-1.1	6.7	74	0.2	4	12	270	0.00	30.351 
02:40	6.7	6.7	6.7	74	0.2	3	7	270	0.00	30.351 
02:45	6.7	6.7	6.7	74	0.2	2	5	270	0.00	30.342 
02:50	6.7	6.7	6.7	74	0.2	3	17	248	0.00	30.342 
02:55	6.7	6.7	6.7	74	0.2	3	10	270	0.00	30.342 
03:00	6.7	6.7	6.7	74	0.2	3	9	270	0.00	30.340 
03:05	6.7	6.7	6.7	74	0.2	3	7	248	0.00	30.340 
03:10	6.7	6.7	6.7	74	0.2	3	9	270	0.00	30.340 
03:15	6.7	6.7	6.7	74	0.2	3	11	270	0.00	30.336 
03:20	6.5	6.5	6.5	74	0.0	3	10	248	0.00	30.336 
03:25	6.5	6.5	6.5	74	0.0	3	10	248	0.00	30.336 
03:30	6.5	6.5	6.5	74	0.0	3	9	248	0.00	30.329 
03:35	6.3	6.3	6.3	74	-0.2	2	9	248	0.00	30.329 
03:40	6.3	6.3	6.3	74	-0.2	2	6	248	0.00	30.329 
03:45	6.3	6.3	6.3	74	-0.2	3	9	248	0.00	30.327 
03:50	6.3	6.3	6.3	73	-0.5	2	6	248	0.00	30.327 
03:55	6.3	6.3	6.3	74	-0.2	2	6	270	0.00	30.327 
04:00	6.3	6.3	6.3	74	-0.2	2	7	270	0.00	30.324 
04:05	6.3	6.3	6.3	73	-0.5	2	9	270	0.00	30.324 
04:10	6.3	6.3	6.3	74	-0.2	2	7	270	0.00	30.324 
04:15	6.3	6.3	6.3	73	-0.5	2	6	270	0.00	30.320 
04:20	6.3	6.3	6.3	74	-0.2	2	7	248	0.00	30.320 
04:25	6.3	6.3	6.3	74	-0.2	2	10	248	0.00	30.320 
04:30	6.3	6.3	6.3	73	-0.5	2	6	270	0.00	30.322 
04:35	6.5	6.5	6.5	73	-0.3	2	6	270	0.00	30.322 
04:40	6.5	6.5	6.5	73	-0.3	3	9	270	0.00	30.322 
04:45	6.5	6.5	6.5	73	-0.3	2	9	248	0.00	30.316 
04:50	6.7	6.7	6.7	73	-0.1	2	8	248	0.00	30.316 
04:55	6.7	6.7	6.7	72	-0.4	3	7	270	0.00	30.316 
05:00	6.7	6.7	6.7	72	-0.4	2	8	248	0.00	30.316 
05:05	6.7	6.7	6.7	72	-0.4	2	5	248	0.00	30.316 
05:10	6.7	6.7	6.7	72	-0.4	3	7	270	0.00	30.316 
05:15	6.7	6.7	6.7	72	-0.4	2	4	248	0.00	30.324 
05:20	6.7	6.7	6.7	72	-0.4	2	7	248	0.00	30.324 
05:25	6.5	6.5	6.5	72	-0.6	2	6	248	0.00	30.324 
05:30	6.7	6.7	6.7	72	-0.4	2	7	248	0.00	30.323 
05:35	6.5	6.5	6.5	72	-0.6	2	5	248	0.00	30.323 
05:40	6.5	6.5	6.5	72	-0.6	2	6	270	0.00	30.323 
05:45	6.5	6.5	6.5	72	-0.6	1	4	248	0.00	30.320 
05:50	6.3	6.3	6.3	72	-0.8	2	6	270	0.00	30.320 
05:55	6.3	6.3	6.3	72	-0.8	1	4	248	0.00	30.320 
06:00	6.1	6.1	6.1	72	-1.0	1	3	248	0.00	30.318 
06:05	6.3	6.3	6.3	73	-0.5	2	6	270	0.00	30.318 
06:10	6.3	6.3	6.3	73	-0.5	1	3	248	0.00	30.318 
06:15	6.3	6.3	6.3	73	-0.5	1	3	248	0.00	30.315 
06:20	6.3	6.3	6.3	73	-0.5	1	3	248	0.00	30.315 
06:25	6.3	6.3	6.3	73	-0.5	1	6	248	0.00	30.315 
06:30	6.5	6.5	6.5	73	-0.3	1	4	248	0.00	30.313 
06:35	6.5	6.5	6.5	73	-0.3	1	7	248	0.00	30.313 
06:40	6.5	6.5	6.5	73	-0.3	2	6	248	0.00	30.313 
06:45	6.7	6.7	6.7	73	-0.1	2	10	248	0.00	30.312 
06:50	6.9	6.9	6.9	73	0.1	2	7	248	0.00	30.312 
06:55	6.9	6.9	6.9	73	0.1	2	6	270	0.00	30.312 
07:00	6.9	6.9	6.9	73	0.1	3	9	248	0.00	30.308 
07:05	7.0	7.0	7.0	73	0.2	2	9	248	0.00	30.308 
07:10	7.0	7.0	7.0	73	0.2	3	7	248	0.00	30.308 
07:15	7.2	7.2	7.2	74	0.7	3	11	248	0.00	30.303 
07:20	7.2	7.2	7.2	73	0.4	2	9	248	0.00	30.303 
07:25	7.2	7.2	7.2	74	0.7	2	8	248	0.00	30.303 
07:30	7.2	7.2	7.2	74	0.7	2	7	270	0.00	30.303 
07:35	7.4	7.4	7.4	74	0.9	2	5	270	0.00	30.303 
07:40	7.6	7.6	7.6	74	1.1	3	7	270	0.00	30.303 
07:45	7.7	7.7	7.7	74	1.2	3	8	248	0.00	30.299 
07:50	7.7	7.7	7.7	74	1.2	2	6	248	0.00	30.299 
07:55	7.7	7.7	7.7	74	1.2	2	9	248	0.00	30.299 
08:00	7.9	7.9	7.9	75	1.7	2	7	270	0.00	30.307 
08:05	8.1	8.1	8.1	74	1.6	2	7	248	0.00	30.307 
08:10	8.1	8.1	8.1	74	1.6	2	5	270	0.00	30.307 
08:15	8.3	8.3	8.3	74	1.8	1	5	270	0.00	30.311 
08:20	8.3	8.3	8.3	74	1.8	2	6	248	0.00	30.311 
08:25	8.3	8.3	8.3	74	1.8	1	4	270	0.00	30.311 
08:30	8.4	8.4	8.4	74	1.8	2	6	248	0.00	30.312 
08:35	8.6	8.6	8.6	73	1.8	3	6	248	0.00	30.312 
08:40	8.8	8.8	8.8	73	1.9	2	6	248	0.00	30.312 
08:45	9.0	9.0	9.0	73	2.1	2	7	270	0.00	30.313 
08:50	9.3	9.3	9.3	73	2.4	3	10	270	0.00	30.313 
08:55	9.7	9.7	9.7	72	2.5	2	4	248	0.00	30.313 
09:00	10.0	10.0	10.0	72	2.8	2	7	270	0.00	30.313 
09:05	10.2	10.2	10.2	72	3.0	3	10	270	0.00	30.313 
09:10	10.4	10.4	10.4	71	2.9	2	7	270	0.00	30.313 
09:15	10.5	10.5	10.5	71	3.0	3	11	270	0.00	30.316 
09:20	10.7	10.7	10.7	71	3.2	3	10	270	0.00	30.316 
09:25	11.1	11.1	11.1	71	3.6	3	7	270	0.00	30.316 
09:30	11.4	11.4	11.4	71	3.9	2	6	270	0.00	30.322 
09:35	11.6	11.6	11.6	70	3.7	3	6	248	0.00	30.322 
09:40	11.9	11.9	11.9	70	4.0	3	7	270	0.00	30.322 
09:45	12.4	12.4	12.4	70	4.5	3	10	248	0.00	30.323 
09:50	12.8	5.9	12.8	69	4.6	4	10	248	0.00	30.323 
09:55	13.1	13.1	13.1	69	4.9	2	6	248	0.00	30.323 
10:00	13.5	13.5	13.5	69	5.3	2	6	270	0.00	30.323 
10:05	13.8	13.8	13.8	69	5.5	3	7	248	0.00	30.323 
10:10	14.1	14.1	14.1	68	5.5	2	6	270	0.00	30.323 
10:15	14.6	14.6	14.6	68	6.0	2	5	270	0.00	30.321 
10:20	14.8	8.2	14.8	67	5.9	4	11	270	0.00	30.321 
10:25	15.1	15.1	15.1	68	6.5	3	9	270	0.00	30.321 
10:30	15.4	15.4	15.4	67	6.4	3	7	270	0.00	30.318 
10:35	15.9	15.9	15.9	66	6.6	3	9	270	0.00	30.318 
10:40	16.1	16.1	16.1	67	7.1	3	8	248	0.00	30.318 
10:45	16.4	10.1	16.4	67	7.4	4	11	248	0.00	30.309 
10:50	16.7	16.7	16.7	67	7.7	3	6	248	0.00	30.309 
10:55	17.2	17.2	17.2	67	8.2	3	11	248	0.00	30.309 
11:00	17.5	17.5	17.5	66	8.1	3	10	270	0.00	30.300 
11:05	18.0	18.0	18.0	67	8.9	2	9	248	0.00	30.300 
11:10	18.4	18.4	18.4	66	9.0	3	8	270	0.00	30.300 
11:15	18.8	18.8	18.8	66	9.4	3	7	270	0.00	30.301 
11:20	18.9	18.9	18.9	66	9.4	3	10	270	0.00	30.301 
11:25	19.1	19.1	19.1	66	9.6	3	11	270	0.00	30.301 
11:30	19.2	19.2	19.2	66	9.7	3	7	270	0.00	30.292 
11:35	19.5	19.5	19.5	66	10.0	3	7	248	0.00	30.292 
11:40	19.9	19.9	19.9	65	10.1	2	6	270	0.00	30.292 
11:45	20.2	20.2	20.2	65	10.3	2	6	270	0.00	30.286 
11:50	20.5	20.5	20.5	65	10.6	3	6	248	0.00	30.286 
11:55	20.8	20.8	20.8	65	10.9	3	10	270	0.00	30.286 
12:00	21.1	21.1	21.1	65	11.2	2	7	270	0.00	30.282 
12:05	21.1	21.1	21.1	65	11.2	3	6	270	0.00	30.282 
12:10	21.3	21.3	21.3	65	11.4	3	6	270	0.00	30.282 
12:15	21.8	21.8	21.8	65	11.9	2	5	270	0.00	30.274 
12:20	22.1	22.1	22.1	65	12.2	2	4	248	0.00	30.274 
12:25	22.4	22.4	22.4	65	12.4	2	5	270	0.00	30.274 
12:30	22.5	15.9	22.5	64	12.2	5	11	270	0.00	30.265 
12:35	22.7	17.3	22.7	64	12.4	4	11	270	0.00	30.265 
12:40	22.9	22.9	22.9	64	12.6	3	11	270	0.00	30.265 
12:45	23.3	23.3	23.3	64	13.0	3	7	270	0.00	30.251 
12:50	23.8	23.8	23.8	64	13.4	3	5	248	0.00	30.251 
12:55	24.1	19.0	24.1	63	13.4	4	10	248	0.00	30.251 
13:00	23.6	16.2	23.6	62	12.5	6	16	270	0.00	30.249 
13:05	23.5	16.1	23.5	64	13.1	6	13	270	0.00	30.249 
13:10	23.5	17.1	23.5	63	12.8	5	16	248	0.00	30.249 
13:15	23.8	18.6	23.8	64	13.4	4	12	270	0.00	30.243 
13:20	24.1	17.8	24.1	63	13.4	5	11	270	0.00	30.243 
13:25	24.2	24.2	24.2	64	13.8	3	9	270	0.00	30.243 
13:30	24.4	18.1	24.4	64	14.0	5	11	270	0.00	30.242 
13:35	24.4	19.3	24.4	63	13.6	4	11	270	0.00	30.242 
13:40	24.4	19.3	24.4	63	13.6	4	9	270	0.00	30.242 
13:45	24.2	17.9	24.2	64	13.8	5	13	270	0.00	30.239 
13:50	24.2	19.1	24.2	64	13.8	4	9	270	0.00	30.239 
13:55	24.4	19.3	24.4	64	14.0	4	10	248	0.00	30.239 
14:00	24.4	18.1	24.4	64	14.0	5	11	248	0.00	30.234 
14:05	24.4	24.4	24.4	64	14.0	3	9	270	0.00	30.234 
14:10	24.1	19.0	24.1	64	13.7	4	10	270	0.00	30.234 
14:15	24.2	19.1	24.2	65	14.2	4	11	270	0.00	30.235 
14:20	24.2	17.9	24.2	64	13.8	5	11	248	0.00	30.235 
14:25	24.4	19.3	24.4	64	14.0	4	13	270	0.00	30.235 
14:30	24.5	19.4	24.5	65	14.4	4	11	270	0.00	30.234 
14:35	24.5	18.3	24.5	64	14.1	5	11	270	0.00	30.234 
14:40	24.5	19.4	24.5	64	14.1	4	14	270	0.00	30.234 
14:45	24.7	24.7	24.7	65	14.6	3	7	248	0.00	30.234 
14:50	24.8	19.8	24.8	64	14.4	4	10	270	0.00	30.234 
14:55	24.8	24.8	24.8	65	14.7	3	7	270	0.00	30.234 
15:00	24.8	24.8	24.8	64	14.4	3	7	270	0.00	30.236 
15:05	24.8	19.8	24.8	64	14.4	4	11	270	0.00	30.236 
15:10	25.0	25.0	25.0	65	14.9	3	10	270	0.00	30.236 
15:15	25.0	25.0	25.0	65	14.9	3	12	270	0.00	30.238 
15:20	25.0	18.9	25.0	65	14.9	5	13	270	0.00	30.238 
15:25	25.0	25.0	25.0	65	14.9	3	6	270	0.00	30.238 
15:30	25.4	25.4	25.4	65	15.3	3	7	248	0.00	30.240 
15:35	25.6	25.6	25.6	64	15.1	3	7	248	0.00	30.240 
15:40	25.4	20.5	25.4	64	14.9	4	11	270	0.00	30.240 
15:45	25.0	25.0	25.0	65	14.9	3	9	270	0.00	30.251 
15:50	24.7	24.7	24.7	66	15.0	2	6	248	0.00	30.251 
15:55	24.4	24.4	24.4	66	14.7	3	9	248	0.00	30.251 
16:00	24.1	24.1	24.1	67	14.8	3	6	248	0.00	30.255 
16:05	23.6	18.4	23.6	67	14.3	4	10	270	0.00	30.255 
16:10	23.3	23.3	23.3	68	14.3	3	11	270	0.00	30.255 
16:15	23.2	23.2	23.2	68	14.2	3	7	270	0.00	30.262 
16:20	23.0	23.0	23.0	68	14.0	2	6	248	0.00	30.262 
16:25	23.0	23.0	23.0	69	14.4	3	10	248	0.00	30.262 
16:30	23.0	23.0	23.0	69	14.4	3	7	248	0.00	30.263 
16:35	23.0	23.0	23.0	69	14.4	2	7	248	0.00	30.263 
16:40	22.9	22.9	22.9	69	14.3	2	6	248	0.00	30.263 
16:45	22.7	22.7	22.7	69	14.1	3	7	270	0.00	30.264 
16:50	22.5	22.5	22.5	69	13.9	2	6	248	0.00	30.264 
16:55	22.4	22.4	22.4	70	14.1	3	7	270	0.00	30.264 
17:00	22.2	22.2	22.2	70	13.9	2	6	248	0.00	30.265 
17:05	22.1	22.1	22.1	70	13.8	2	6	270	0.00	30.265 
17:10	21.8	21.8	21.8	71	13.9	2	5	248	0.00	30.265 
17:15	21.8	21.8	21.8	71	13.9	3	5	248	0.00	30.266 
17:20	21.8	21.8	21.8	71	13.9	2	5	248	0.00	30.266 
17:25	21.8	21.8	21.8	72	14.2	2	5	248	0.00	30.266 
17:30	21.8	21.8	21.8	72	14.2	3	6	248	0.00	30.268 
17:35	21.9	21.9	21.9	72	14.3	2	4	270	0.00	30.268 
17:40	21.9	21.9	21.9	71	14.0	2	5	248	0.00	30.268 
17:45	21.9	21.9	21.9	72	14.3	1	2	248	0.00	30.270 
17:50	21.9	21.9	21.9	72	14.3	1	4	248	0.00	30.270 
17:55	21.9	21.9	21.9	72	14.3	1	6	248	0.00	30.270 
18:00	21.9	21.9	21.9	72	14.3	2	3	248	0.00	30.275 
18:05	21.9	21.9	21.9	72	14.3	3	7	248	0.00	30.275 
18:10	22.1	22.1	22.1	72	14.5	3	10	248	0.00	30.275 
18:15	22.1	22.1	22.1	72	14.5	3	6	248	0.00	30.272 
18:20	22.1	22.1	22.1	72	14.5	3	5	248	0.00	30.272 
18:25	22.1	22.1	22.1	73	14.8	1	3	248	0.00	30.272 
18:30	22.1	22.1	22.1	73	14.8	1	4	248	0.00	30.282 
18:35	22.1	22.1	22.1	73	14.8	1	5	248	0.00	30.282 
18:40	22.1	22.1	22.1	73	14.8	1	3	248	0.00	30.282 
18:45	22.1	22.1	22.1	73	14.8	1	5	248	0.00	30.283 
18:50	22.1	22.1	22.1	73	14.8	1	2	248	0.00	30.283 
18:55	22.1	22.1	22.1	73	14.8	1	5	270	0.00	30.283 
19:00	22.1	22.1	22.1	73	14.8	1	4	270	0.00	30.288 
19:05	22.1	22.1	22.1	73	14.8	1	4	248	0.00	30.288 
19:10	22.1	22.1	22.1	74	15.1	1	2	270	0.00	30.288 
19:15	22.1	22.1	22.1	74	15.1	1	4	248	0.00	30.286 
19:20	21.9	21.9	21.9	74	14.9	1	3	248	0.00	30.286 
19:25	21.9	21.9	21.9	74	14.9	2	5	270	0.00	30.286 
19:30	21.9	21.9	21.9	75	15.2	1	4	248	0.00	30.289 
19:35	22.1	22.1	22.1	75	15.4	1	3	248	0.00	30.289 
19:40	22.1	22.1	22.1	75	15.4	1	4	248	0.00	30.289 
19:45	22.1	22.1	22.1	75	15.4	2	5	248	0.00	30.296 
19:50	22.1	22.1	22.1	75	15.4	2	3	248	0.00	30.296 
19:55	22.2	22.2	22.2	75	15.5	2	5	248	0.00	30.296 
20:00	22.2	22.2	22.2	76	15.8	2	4	248	0.00	30.298 
20:05	22.2	22.2	22.2	76	15.8	1	5	248	0.00	30.298 
20:10	22.2	22.2	22.2	76	15.8	2	5	248	0.00	30.298 
20:15	22.2	22.2	22.2	76	15.8	2	4	248	0.00	30.294 
20:20	22.4	22.4	22.4	76	16.0	1	5	248	0.00	30.294 
20:25	22.4	22.4	22.4	76	16.0	1	5	248	0.00	30.294 
20:30	22.5	22.5	22.5	77	16.4	1	3	248	0.00	30.295 
20:35	22.7	22.7	22.7	77	16.6	2	9	248	0.00	30.295 
20:40	22.7	22.7	22.7	77	16.6	2	6	248	0.00	30.295 
20:45	22.9	22.9	22.9	76	16.5	3	10	248	0.00	30.293 
20:50	22.9	22.9	22.9	77	16.8	2	7	248	0.00	30.293 
20:55	22.9	22.9	22.9	76	16.5	2	6	270	0.00	30.293 
21:00	22.7	22.7	22.7	76	16.3	2	4	270	0.00	30.291 
21:05	22.7	22.7	22.7	76	16.3	2	6	270	0.00	30.291 
21:10	22.7	22.7	22.7	76	16.3	2	8	270	0.00	30.291 
21:15	22.5	22.5	22.5	77	16.4	1	3	270	0.00	30.287 
21:20	22.5	22.5	22.5	77	16.4	2	4	270	0.00	30.287 
21:25	22.4	22.4	22.4	77	16.3	2	4	270	0.00	30.287 
21:30	22.4	22.4	22.4	77	16.3	1	3	270	0.00	30.285 
21:35	22.4	22.4	22.4	77	16.3	1	4	270	0.00	30.285 
21:40	22.4	22.4	22.4	77	16.3	1	3	270	0.00	30.285 
21:45	22.4	22.4	22.4	77	16.3	1	3	248	0.00	30.286 
21:50	22.4	22.4	22.4	77	16.3	1	3	248	0.00	30.286 
21:55	22.2	22.2	22.2	78	16.4	1	2	248	0.00	30.286 
22:00	22.2	22.2	22.2	78	16.4	1	5	248	0.00	30.282 
22:05	22.2	22.2	22.2	78	16.4	1	5	292	0.00	30.282 
22:10	22.2	22.2	22.2	78	16.4	1	3	248	0.00	30.282 
22:15	22.2	22.2	22.2	78	16.4	1	3	248	0.00	30.277 
22:20	22.2	22.2	22.2	78	16.4	1	3	248	0.00	30.277 
22:25	22.2	22.2	22.2	78	16.4	1	3	248	0.00	30.277 
22:30	22.2	22.2	22.2	78	16.4	1	2	292	0.00	30.274 
22:35	22.2	22.2	22.2	78	16.4	2	7	270	0.00	30.274 
22:40	22.2	22.2	22.2	78	16.4	2	5	248	0.00	30.274 
22:45	22.2	22.2	22.2	78	16.4	3	7	248	0.00	30.273 
22:50	22.2	22.2	22.2	78	16.4	2	7	248	0.00	30.273 
22:55	22.4	22.4	22.4	78	16.6	2	7	248	0.00	30.273 
23:00	22.4	22.4	22.4	78	16.6	2	9	270	0.00	30.273 
23:05	22.4	22.4	22.4	78	16.6	1	4	248	0.00	30.273 
23:10	22.4	22.4	22.4	78	16.6	2	4	248	0.00	30.273 
23:15	22.4	22.4	22.4	78	16.6	2	5	248	0.00	30.271 
23:20	22.4	22.4	22.4	78	16.6	1	2	248	0.00	30.271 
23:25	22.4	22.4	22.4	79	16.9	1	3	248	0.00	30.271 
23:30	22.4	22.4	22.4	79	16.9	2	5	248	0.00	30.262 
23:35	22.2	22.2	22.2	78	16.4	2	4	248	0.00	30.262 
23:40	22.2	22.2	22.2	77	16.1	2	4	270	0.00	30.262 
23:45	22.2	22.2	22.2	78	16.4	2	6	248	0.00	30.258 
23:50	22.2	22.2	22.2	77	16.1	2	5	270	0.00	30.258 
23:55	22.2	22.2	22.2	77	16.1	2	5	248	0.00	30.258 

CoCoRaHS
IN-AL-39
A2 Web Hosting
Creative Commons License
GoDaddy
Look for:

loaded 2017-10-18 07:31:58 • last modified 2010-11-18 10:43:29
Privacy PolicyDisclaimer
• wx.awcolley.com is powered by PmWiki v.2002016 •
• all content (unless otherwise noted) © 2017 A W Colley